Worthington, MN

12:28 PM CST on December 14, 2019 (GMT -0600)
Worthington Municipal

Weather History for KOTG - November, 2019

Change the Weather History Date:

Friday, November 15, 2019

  Actual Average Record
Temperature  
Mean Temperature 38 °F -  
Max Temperature 52 °F 39 °F 66 °F (2001)
Min Temperature 25 °F 24 °F 8 °F (1982)
Degree Days  
Heating Degree Days 26    
Moisture  
Dew Point 30 °F    
Average Humidity 75    
Maximum Humidity 92    
Minimum Humidity 57    
Precipitation  
Precipitation 0.00 in - - ()
Sea Level Pressure  
Sea Level Pressure 30.27 in    
Wind  
Wind Speed 9 mph (SSE)    
Max Wind Speed 18 mph    
Max Gust Speed 23 mph    
Visibility 10 miles    
Events      
Averages and records for this station are not official NWS values.
T = Trace of Precipitation, MM = Missing Value Source: NWS Daily Summary

Daily Weather History Graph

Daily Weather History Graph

Search for Another Location

Airport or City:

Astronomy

Nov. 15, 2019 Rise Set
Actual Time 7:16 AM CST 4:57 PM CST
Civil Twilight 6:45 AM CST 5:28 PM CST
Nautical Twilight 6:10 AM CST 6:02 PM CST
Astronomical Twilight 5:36 AM CST 6:36 PM CST
Moon 7:30 PM CST (11/15) 10:16 AM CST (11/15)
Length of Visible Light 10h 42m
Length of Day
9h 41m
Waning Gibbous, 90% of the Moon is Illuminated
Nov 15
Waning Gibbous
Nov 19
Last Quarter
Nov 26
New
Dec 4
First Quarter
Dec 11
Full

Hourly Weather History & Observations

Time (CST) Temp. Windchill Dew Point Humidity Pressure Visibility Wind Dir Wind Speed Gust Speed Precip Events Conditions
1:56 AM 33.1 °F 23.4 °F 27.0 °F 78% 30.31 in 10.0 mi WSW 13.8 mph - N/A   Clear
2:56 AM 30.0 °F 22.4 °F 26.1 °F 85% 30.31 in 10.0 mi WSW 8.1 mph - N/A   Clear
3:56 AM 28.9 °F 22.8 °F 26.1 °F 89% 30.31 in 10.0 mi WSW 5.8 mph - N/A   Clear
4:56 AM 30.9 °F 22.8 °F 27.0 °F 85% 30.31 in 10.0 mi WSW 9.2 mph - N/A   Clear
5:56 AM 28.0 °F 24.2 °F 26.1 °F 92% 30.32 in 10.0 mi ESE 3.5 mph - N/A   Clear
6:56 AM 25.0 °F 19.3 °F 23.0 °F 92% 30.32 in 10.0 mi South 4.6 mph - N/A   Clear
7:56 AM 26.1 °F 20.5 °F 24.1 °F 92% 30.32 in 10.0 mi SE 4.6 mph - N/A   Clear
8:56 AM 34.0 °F 28.0 °F 28.0 °F 79% 30.32 in 10.0 mi South 6.9 mph - N/A   Clear
9:56 AM 37.0 °F 32.4 °F 28.9 °F 73% 30.30 in 10.0 mi South 5.8 mph - N/A   Clear
10:56 AM 39.9 °F 35.8 °F 30.9 °F 70% 30.31 in 10.0 mi SSE 5.8 mph - N/A   Clear
11:56 AM 46.0 °F 42.5 °F 34.0 °F 63% 30.28 in 10.0 mi SE 6.9 mph - N/A   Clear
12:56 PM 46.9 °F - 34.0 °F 61% 30.26 in 10.0 mi SE 10.4 mph - N/A   Clear
1:56 PM 48.9 °F - 35.1 °F 59% 30.24 in 10.0 mi SSE 8.1 mph - N/A   Clear
2:56 PM 52.0 °F - 37.0 °F 57% 30.22 in 10.0 mi ESE 10.4 mph - N/A   Clear
3:56 PM 50.0 °F - 36.0 °F 59% 30.23 in 10.0 mi SE 10.4 mph - N/A   Clear
4:56 PM 43.0 °F 38.2 °F 34.0 °F 71% 30.23 in 10.0 mi SE 8.1 mph - N/A   Clear
5:56 PM 41.0 °F 35.2 °F 32.0 °F 70% 30.23 in 10.0 mi SSE 9.2 mph - N/A   Clear
6:56 PM 37.9 °F 31.5 °F 32.0 °F 79% 30.24 in 10.0 mi SE 9.2 mph - N/A   Clear
7:56 PM 37.9 °F 31.5 °F 32.0 °F 79% 30.25 in 10.0 mi South 9.2 mph - N/A   Clear
8:56 PM 39.9 °F 31.4 °F 32.0 °F 73% 30.24 in 10.0 mi South 16.1 mph - N/A   Clear
9:56 PM 39.9 °F 31.1 °F 32.0 °F 73% 30.22 in 10.0 mi South 17.3 mph 23.0 mph N/A   Clear
10:56 PM 39.0 °F 30.3 °F 30.9 °F 73% 30.21 in 10.0 mi South 16.1 mph - N/A   Clear
11:56 PM 39.0 °F 29.6 °F 30.0 °F 70% 30.20 in 10.0 mi South 18.4 mph 23.0 mph N/A   Clear